Osceola, IA

6:42 PM CDT on August 31, 2016 (GMT -0500)
Osceola Municipal

Weather History for KI75 - January, 2013

Change the Weather History Date:

Friday, January 25, 2013

  Actual Average (KLWD) Record (KLWD)
Temperature  
Mean Temperature 30 °F 24 °F  
Max Temperature 45 °F 34 °F 58 °F (1981)
Min Temperature 14 °F 15 °F -8 °F (1978)
Degree Days  
Heating Degree Days 36 41  
Month to date heating degree days 1025  
Since 1 July heating degree days 3454  
Cooling Degree Days 0 0  
Month to date cooling degree days 0  
Year to date cooling degree days 0  
Moisture  
Dew Point 16 °F    
Average Humidity 62    
Maximum Humidity 86    
Minimum Humidity 37    
Precipitation  
Precipitation 0.00 in 0.03 in 0.64 in (1950)
Month to date precipitation 0.53  
Sea Level Pressure  
Sea Level Pressure 30.14 in    
Wind  
Wind Speed 10 mph (West)    
Max Wind Speed 18 mph    
Max Gust Speed 24 mph    
Visibility 10 miles    
Events      
T = Trace of Precipitation, MM = Missing Value Source: NWS Daily Summary

Daily Weather History Graph

Daily Weather History Graph

Search for Another Location

Airport or City:

Trip Planner

Search our weather history database for the weather conditions in past years. The results will help you decide how hot, cold, wet, or windy it might be!

Date:

Astronomy

Jan. 25, 2013 Rise Set
Actual Time 7:31 AM CST 5:23 PM CST
Civil Twilight 7:01 AM CST 5:53 PM CST
Nautical Twilight 6:28 AM CST 6:26 PM CST
Astronomical Twilight 5:55 AM CST 6:58 PM CST
Moon 4:21 PM CST (1/25) 6:11 AM CST (1/25)
Length of Visible Light 10h 51m
Length of Day
9h 52m
Waxing Gibbous, 98% of the Moon is Illuminated
Jan 25
Waxing Gibbous
Jan 26
Full
Feb 3
Last Quarter
Feb 10
New
Feb 17
First Quarter

Hourly Weather History & Observations

Time (CST) Temp. Windchill Dew Point Humidity Pressure Visibility Wind Dir Wind Speed Gust Speed Precip Events Conditions
12:15 AM 22.1 °F 12.8 °F 6.8 °F 52% 30.20 in 10.0 mi South 8.1 mph - N/A   Overcast
12:35 AM 21.9 °F 11.7 °F 8.4 °F 56% 30.19 in 10.0 mi South 9.2 mph 18.4 mph N/A   Overcast
12:55 AM 21.7 °F 10.2 °F 10.4 °F 62% 30.18 in 10.0 mi SSW 11.5 mph - N/A   Overcast
1:15 AM 21.7 °F 10.2 °F 11.3 °F 64% 30.16 in 10.0 mi SSW 11.5 mph - N/A   Overcast
1:35 AM 21.9 °F 11.7 °F 11.5 °F 64% 30.17 in 10.0 mi SW 9.2 mph - N/A   Overcast
1:55 AM 21.7 °F 11.5 °F 12.2 °F 67% 30.17 in 10.0 mi SW 9.2 mph - N/A   Overcast
2:15 AM 21.7 °F 11.5 °F 12.6 °F 68% 30.15 in 10.0 mi SSW 9.2 mph - N/A   Overcast
2:35 AM 21.7 °F 10.8 °F 12.6 °F 68% 30.13 in 10.0 mi South 10.4 mph - N/A   Overcast
2:55 AM 21.6 °F 12.1 °F 13.1 °F 70% 30.12 in 10.0 mi SSW 8.1 mph - N/A   Overcast
3:15 AM 21.4 °F 11.1 °F 14.0 °F 73% 30.12 in 10.0 mi SSW 9.2 mph - N/A   Overcast
3:35 AM 21.0 °F 11.4 °F 13.6 °F 73% 30.13 in 10.0 mi SW 8.1 mph - N/A   Overcast
3:55 AM 19.0 °F 13.9 °F 12.7 °F 76% 30.13 in 10.0 mi SW 3.5 mph - N/A   Scattered Clouds
4:15 AM 18.7 °F - 12.7 °F 78% 30.13 in 10.0 mi Calm Calm - N/A   Clear
4:35 AM 18.1 °F 12.9 °F 12.6 °F 79% 30.12 in 10.0 mi SW 3.5 mph - N/A   Clear
4:55 AM 17.8 °F 12.5 °F 12.4 °F 79% 30.11 in 10.0 mi SW 3.5 mph - N/A   Clear
5:15 AM 16.9 °F 9.8 °F 11.7 °F 80% 30.09 in 10.0 mi South 4.6 mph - N/A   Clear
5:35 AM 15.6 °F 7.0 °F 11.1 °F 82% 30.09 in 10.0 mi SSW 5.8 mph - N/A   Clear
5:55 AM 14.9 °F 6.1 °F 11.1 °F 85% 30.10 in 10.0 mi SW 5.8 mph - N/A   Clear
6:15 AM 14.4 °F 4.3 °F 10.6 °F 85% 30.10 in 10.0 mi SW 6.9 mph - N/A   Clear
6:35 AM 14.0 °F 3.9 °F 10.4 °F 86% 30.11 in 10.0 mi SW 6.9 mph - N/A   Clear
6:55 AM 14.7 °F 4.8 °F 10.6 °F 84% 30.11 in 10.0 mi SW 6.9 mph - N/A   Clear
7:35 AM 15.1 °F 5.2 °F 10.6 °F 82% 30.11 in 10.0 mi SW 6.9 mph - N/A   Clear
7:55 AM 15.6 °F 7.0 °F 10.9 °F 82% 30.11 in 10.0 mi SW 5.8 mph - N/A   Clear
8:15 AM 17.8 °F 8.5 °F 11.8 °F 78% 30.11 in 10.0 mi SW 6.9 mph - N/A   Clear
8:35 AM 19.6 °F 8.9 °F 12.4 °F 74% 30.10 in 10.0 mi SW 9.2 mph - N/A   Clear
8:55 AM 22.1 °F 10.0 °F 12.4 °F 66% 30.10 in 10.0 mi WSW 12.7 mph - N/A   Clear
9:15 AM 23.9 °F 11.2 °F 12.0 °F 61% 30.10 in 10.0 mi WSW 15.0 mph - N/A   Clear
9:35 AM 26.2 °F 14.7 °F 11.8 °F 55% 30.11 in 10.0 mi West 13.8 mph - N/A   Clear
9:55 AM 28.0 °F 17.0 °F 12.2 °F 52% 30.11 in 10.0 mi West 13.8 mph - N/A   Clear
10:15 AM 30.4 °F 20.0 °F 13.1 °F 49% 30.12 in 10.0 mi West 13.8 mph - N/A   Clear
10:35 AM 31.5 °F 21.8 °F 14.0 °F 49% 30.12 in 10.0 mi WSW 12.7 mph - N/A   Clear
10:55 AM 33.8 °F 25.3 °F 15.8 °F 48% 30.10 in 10.0 mi West 11.5 mph - N/A   Clear
11:15 AM 36.9 °F 27.8 °F 18.5 °F 47% 30.10 in 10.0 mi West 15.0 mph 18.4 mph N/A   Clear
11:35 AM 38.8 °F 30.0 °F 19.9 °F 47% 30.10 in 10.0 mi WNW 16.1 mph 21.9 mph N/A   Clear
11:55 AM 39.4 °F 30.4 °F 20.3 °F 46% 30.10 in 10.0 mi WNW 17.3 mph 23.0 mph N/A   Clear
12:15 PM 40.6 °F 32.0 °F 20.7 °F 45% 30.11 in 10.0 mi WNW 17.3 mph 21.9 mph N/A   Clear
12:35 PM 41.2 °F 33.4 °F 20.3 °F 43% 30.10 in 10.0 mi WNW 15.0 mph - N/A   Clear
1:15 PM 41.9 °F 33.7 °F 19.8 °F 41% 30.10 in 10.0 mi WNW 17.3 mph 23.0 mph N/A   Clear
1:35 PM 42.6 °F 34.3 °F 19.8 °F 40% 30.09 in 10.0 mi WNW 18.4 mph 23.0 mph N/A   Clear
1:55 PM 43.3 °F 36.1 °F 20.1 °F 40% 30.09 in 10.0 mi West 15.0 mph 19.6 mph N/A   Clear
2:15 PM 44.6 °F 38.1 °F 20.5 °F 38% 30.09 in 10.0 mi West 13.8 mph 23.0 mph N/A   Clear
2:35 PM 44.6 °F 36.9 °F 20.1 °F 38% 30.09 in 10.0 mi WNW 18.4 mph 21.9 mph N/A   Clear
2:55 PM 44.8 °F 37.7 °F 20.1 °F 37% 30.09 in 10.0 mi West 16.1 mph - N/A   Clear
3:15 PM 44.8 °F 37.7 °F 20.1 °F 37% 30.09 in 10.0 mi WNW 16.1 mph - N/A   Clear
3:35 PM 45.0 °F 37.6 °F 20.1 °F 37% 30.09 in 10.0 mi NW 17.3 mph 21.9 mph N/A   Clear
3:55 PM 44.6 °F 38.1 °F 20.3 °F 38% 30.09 in 10.0 mi WNW 13.8 mph 21.9 mph N/A   Clear
4:15 PM 43.9 °F 36.5 °F 20.3 °F 39% 30.09 in 10.0 mi WNW 16.1 mph 23.0 mph N/A   Clear
4:35 PM 43.0 °F 35.4 °F 20.3 °F 40% 30.10 in 10.0 mi WNW 16.1 mph 24.2 mph N/A   Clear
4:55 PM 41.9 °F 36.3 °F 20.8 °F 43% 30.10 in 10.0 mi NW 9.2 mph - N/A   Clear
5:15 PM 39.4 °F 33.2 °F 21.2 °F 48% 30.11 in 10.0 mi WNW 9.2 mph - N/A   Clear
5:35 PM 37.2 °F 31.2 °F 21.4 °F 53% 30.12 in 10.0 mi WNW 8.1 mph - N/A   Clear
5:55 PM 36.9 °F 30.7 °F 22.1 °F 55% 30.13 in 10.0 mi WNW 8.1 mph - N/A   Clear
6:15 PM 35.1 °F 30.1 °F 21.4 °F 57% 30.14 in 10.0 mi WNW 5.8 mph - N/A   Clear
6:35 PM 33.3 °F 28.9 °F 21.6 °F 62% 30.15 in 10.0 mi NW 4.6 mph - N/A   Clear
6:55 PM 32.4 °F 26.9 °F 21.2 °F 63% 30.15 in 10.0 mi NW 5.8 mph - N/A   Clear
7:15 PM 32.0 °F - 22.1 °F 67% 30.17 in 10.0 mi Calm Calm - N/A   Clear
7:35 PM 32.0 °F 26.4 °F 22.6 °F 68% 30.17 in 10.0 mi WNW 5.8 mph - N/A   Clear
7:55 PM 31.5 °F 24.9 °F 23.0 °F 71% 30.18 in 10.0 mi NW 6.9 mph - N/A   Clear
8:15 PM 30.7 °F 27.3 °F 22.8 °F 72% 30.18 in 10.0 mi WNW 3.5 mph - N/A   Clear
8:35 PM 30.6 °F 23.8 °F 23.0 °F 74% 30.18 in 10.0 mi NW 6.9 mph - N/A   Clear
8:55 PM 30.7 °F 24.9 °F 23.4 °F 74% 30.19 in 10.0 mi NW 5.8 mph - N/A   Clear
9:15 PM 29.7 °F 22.8 °F 22.8 °F 76% 30.21 in 10.0 mi NW 6.9 mph - N/A   Clear
9:35 PM 28.4 °F 19.7 °F 22.3 °F 78% 30.22 in 10.0 mi NNW 9.2 mph - N/A   Clear
9:55 PM 28.6 °F 19.3 °F 21.9 °F 76% 30.23 in 10.0 mi NW 10.4 mph - N/A   Clear
10:15 PM 27.0 °F 17.3 °F 20.1 °F 75% 30.23 in 10.0 mi NNW 10.4 mph - N/A   Clear
10:35 PM 25.7 °F 15.7 °F 18.7 °F 75% 30.24 in 10.0 mi North 10.4 mph - N/A   Clear
10:55 PM 24.1 °F 13.7 °F 16.2 °F 72% 30.24 in 10.0 mi North 10.4 mph - N/A   Clear
11:15 PM 21.9 °F 14.5 °F 13.1 °F 69% 30.26 in 10.0 mi NNE 5.8 mph - N/A   Clear
11:35 PM 20.7 °F 11.0 °F 11.3 °F 67% 30.26 in 10.0 mi North 8.1 mph - N/A   Clear
11:55 PM 19.9 °F 7.3 °F 9.9 °F 65% 30.25 in 10.0 mi North 12.7 mph - N/A   Clear